Regional Weather Roundup
Issued by NWS Midland/Odessa, TX

Skip options and go directly to product.
Home | Oldest Version | Next Version | Current Version | All | Text Only | Save Text | Print | Product List | Glossary On

Skip product version selection by date and time.   
671
ASUS44 KMAF 182101
RWRMAF
MIDLAND AREA WEATHER ROUNDUP
NATIONAL WEATHER SERVICE MIDLAND TX
300 PM CST THU DEC 18 2014

...IN SOUTHWEST TEXAS AND SOUTHEAST NEW MEXICO...

CITY           SKY/WX    TMP DP  RH WIND       PRES   REMARKS
ALPINE         PTSUNNY   61  30  30 SE6       30.11F
ANDREWS        FAIR      62  33  32 SW5G16    30.05F
ARTESIA        CLOUDY    57  32  38 SE7       30.03F
BIG SPRING     SUNNY     65  32  29 SW3       30.07S
CARLSBAD       PTSUNNY   62  32  32 SW5       30.01F
DRYDEN           N/A     63  44  50 E5        30.01F
FORT STOCKTON  PTSUNNY   65  30  27 CALM      30.04F
GUAD PASS      NOT AVBL
HOBBS          SUNNY     59  28  31 SE5       30.05F
MARFA          PTSUNNY   57  27  30 S12       30.09F
MIDLAND AIRPK  SUNNY     63  34  33 NW3       30.06F
MIDLAND INTL   SUNNY     64  35  34 SW8       30.04F
ODESSA         SUNNY     63  32  31 S6        30.05F
PECOS          MOSUNNY   65  32  28 SW8       30.04F
PRESIDIO       FAIR      62  31  31 CALM      30.04F
SEMINOLE       MOSUNNY   60  29  30 CALM      30.06S
SNYDER         MOSUNNY   59  33  37 N5        30.05F
WINK           SUNNY     64  31  28 SW3       30.03F
$$
...OTHER STATIONS IN TEXAS...

CITY           SKY/WX    TMP DP  RH WIND       PRES   REMARKS
ABILENE        MOSUNNY   62  34  35 N7        30.06F
AMARILLO       SUNNY     42  30  62 N7        30.07F WCI  38
AUSTIN         CLOUDY    60  55  83 NE8       30.05S
BROWNSVILLE    CLOUDY    75  69  81 SE13      29.95F
CORPUS CHRISTI PTSUNNY   77  67  71 SE15      29.96F
DALLAS FTW     CLOUDY    48  44  86 NE6       30.09F
DEL RIO        CLOUDY    65  54  67 NW6       30.00F
EL PASO        CLOUDY    55  36  48 S10       30.06F
HOUSTON INT    CLOUDY    69  62  78 NE6       30.04R
LUBBOCK        PTSUNNY   56  31  38 NE5       30.04F
SAN ANGELO     PTSUNNY   67  37  33 CALM      30.04F
SAN ANTONIO    CLOUDY    65  59  81 NE6       30.03F
WACO           CLOUDY    52  48  86 N8        30.09S
WICHITA FALLS  NOT AVBL
$$
...OTHER LOCATIONS IN NEW MEXICO...

CITY           SKY/WX    TMP DP  RH WIND       PRES   REMARKS
ALAMAGORDO     CLOUDY    54  28  37 S5        30.06F
ALBUQUERQUE    CLOUDY    44  28  53 VRB6      30.09F
CANNON AFB     SUNNY     55  21  27 W14       30.01F
CLOVIS         MOSUNNY   54  25  32 SW7       30.02S
HOLLOMAN AFB   CLOUDY    54  31  40 S1        30.04F
ROSWELL        CLOUDY    56  32  40 SE10      30.03F
RUIDOSO        CLOUDY    45  25  45 SW14      30.07F WCI  38
SANTA FE       CLOUDY    38  25  59 N8        30.06F WCI  32
TRUTH OR CONSE CLOUDY    49  28  44 S9        30.04F
TUCUMCARI      MOSUNNY   44  32  62 VRB3      30.02S
$$

USA.gov is the U.S. government's official web portal to all federal, state and local government web resources and services.